Regional Weather Roundup
Issued by NWS

Home | Current Version | Previous Version | Text Only | Print | Product List | Glossary On
Versions: 1 2 3 4 5 6 7 8 9 10 11 12 13 14 15 16 17 18 19 20 21 22 23 24 25 26 27
000
ASUS45 KTFX 240310
RWRMT
MONTANA REGIONAL WEATHER ROUNDUP
NATIONAL WEATHER SERVICE GREAT FALLS MT
800 PM MST THU FEB 23 2017

NOTE: "FAIR" INDICATES FEW OR NO CLOUDS BELOW 12000 FEET WITH NO
SIGNIFICANT WEATHER AND/OR OBSTRUCTIONS TO VISIBILITY.

MTZ001>007-043-240400-
WEST OF THE DIVIDE

CITY           SKY/WX    TMP DP  RH WIND       PRES   REMARKS
KALISPELL      MOCLDY    27  21  78 NW3       29.96S
MISSOULA       CLOUDY    32  22  66 NW6       29.96S WCI  26
BUTTE          LGT SNOW  23  18  81 SW6       29.83S WCI  16
MULLAN PASS    CLOUDY    17  15  92 VRB6      29.86F FOG     WCI   9
ANACONDA         N/A     23  12  63 NW10      29.87S WCI  12
DEER LODGE       N/A     23  16  74 N7        29.91F WCI  15
EUREKA           N/A     25  18  74 CALM      29.99S
HAMILTON         N/A     30  21  69 NW9       29.92S WCI  22
LIBBY            N/A     27  19  74 SE5       29.99S
RONAN            N/A     24  18  78 CALM      29.99F
$$

MTZ008-052>055-240400-
SOUTHWEST MONTANA

CITY           SKY/WX    TMP DP  RH WIND       PRES   REMARKS
BOZEMAN        CLOUDY    27  12  53 VRB3      29.87F
DILLON         CLOUDY    26  17  68 NE13      29.80S WCI  15
W YELLOWSTONE  FLURRIES  19  14  79 N3        29.76F
ENNIS          CLOUDY    21  14  73 N15       29.85R WCI   8
THREE FORKS      N/A     26 -32   7 CALM      29.90S
$$

MTZ009-010-012-014-046-048-049-054-240400-
EAST SLOPES AND CENTRAL MONTANA

CITY           SKY/WX    TMP DP  RH WIND       PRES   REMARKS
CUT BANK       CLOUDY    23  20  88 SE15      29.96F WCI  10
GREAT FALLS    FLURRIES  24  21  88 N7        29.98S WCI  16
MALMSTROM AFB  FLURRIES  25  24  95 NE9       29.99F WCI  16
HELENA         CLOUDY    27  22  81 W8        29.93F WCI  19
AUGUSTA        MOCLDY    19  19 100 NE6       29.94F WCI  11
BOWMANS CRNR   FRZ RAIN  20  19  93 E9        29.93F WCI  10
CHOTEAU          N/A     23  19  86 CALM      29.98F
POWER          FLURRIES  23  22  94 N6        29.98S WCI  16
RAYNESFORD       N/A     22  19  87 SE10      29.95F WCI  11
ULM            FLURRIES  25  22  90 MISG      29.98F
$$

MTZ011-013-016-021-045-047-050-051-240400-
NORTH CENTRAL MONTANA

CITY           SKY/WX    TMP DP  RH WIND       PRES   REMARKS
HAVRE          LGT SNOW  26  24  92 E12       30.05F FOG     WCI  16
LEWISTOWN      CLOUDY    19  16  88 E7        29.97F WCI  10
N BAR RANCH    FLURRIES  21  18  86 CALM      30.00S
CHINOOK          N/A     28  23  80 E8        30.07F WCI  20
DENTON         MOCLDY    23  22  95 NE12      29.96F WCI  12
FORT BENTON      N/A     28  25  86 MISG      30.04S
GEYSER         FLURRIES  24  23  96 E7        29.95F WCI  16
GRASS RANGE    FLURRIES  24  24  98 E6        29.97S WCI  17
JUDITH GAP     CLOUDY    20  15  81 S12       29.94F WCI   8
ROY            LGT SNOW  25  25  99 MISG      30.00S FOG
STANFORD       FLURRIES  21  20  97 S3        29.94F
WINIFRED       FLURRIES  24  24  99 E12       29.99F WCI  13
$$

MTZ017>020-022>027-061-062-240400-
NORTHEAST MONTANA

CITY           SKY/WX    TMP DP  RH WIND       PRES   REMARKS
GLASGOW        CLOUDY    26  19  74 E9        30.11S WCI  17
JORDAN           N/A     28  24  85 E6        30.07R WCI  22
SIDNEY         CLOUDY    25  18  74 E6        30.14R WCI  18
WOLF POINT     CLOUDY    27  19  72 E7        30.14S WCI  19
PLENTYWOOD       N/A     25  18  74 S5        30.12S
POPLAR           N/A     25  19  80 NE6       30.15R WCI  18
SCOBEY           N/A     24  12  60 CALM      30.09R
$$

MTZ028>42-056>058-240400-
SOUTHCENTRAL AND SOUTHEAST MONTANA

CITY           SKY/WX    TMP DP  RH WIND       PRES   REMARKS
BAKER          CLOUDY    25  22  88 NE10      30.05S WCI  15
BILLINGS       FLURRIES  26  23  88 NE12      29.98S WCI  16
LIVINGSTON     LGT SNOW  21  18  88 E16       29.90F FOG     WCI   7
MILES CITY     CLOUDY    29  24  82 NE8       30.06R WCI  21
BIG TIMBER     CLOUDY    23  21  93 E6        29.96F FOG     WCI  16
EKALAKA          N/A     24  20  85 NE7       29.98R WCI  16
FORSYTH          N/A     28  28 100 NE8       30.05R WCI  20
HARLOWTON      FLURRIES  22  19  89 E6        29.96F WCI  14
LAUREL           N/A     25  16  68 MISG      29.96S
$$

REGIONAL REPORTS...DAKOTAS

CITY           SKY/WX    TMP DP  RH WIND       PRES   REMARKS
WILLISTON      CLEAR     14   9  80 N3        30.14R
MINOT          CLEAR     21  15  78 CALM      30.13R
DICKINSON      CLOUDY    19  12  74 N12       30.05F WCI   7
BEACH            N/A    N/A N/A N/A MISG        N/A
CROSBY         MOCLDY    25  19  80 S6        30.14F WCI  18
TIOGA            N/A     18  16  93 N8        30.13S WCI   7
WATFORD CITY     N/A     14  10  85 CALM      30.13S
BISMARCK       CLOUDY    22  15  75 N8        30.11S WCI  12
GRAND FORKS    PTCLDY    21  13  71 N9        30.12F WCI  11
FARGO          CLOUDY    24  15  68 N15       30.06F WCI  11
BUFFALO SD       N/A     26  24  92 NE14      29.95R WCI  14
RAPID CITY     FLURRIES  27  22  81 NE14      29.96R WCI  16
$$

REGIONAL REPORTS...WYOMING/IDAHO/WASHINGTON

CITY           SKY/WX    TMP DP  RH WIND       PRES   REMARKS
GILLETTE       CLOUDY    24  20  84 NE9       29.92S WCI  14
SHERIDAN       LGT SNOW  26  21  81 SE13      29.95S WCI  15
BUFFALO WY     LGT SNOW  22  17  81 N6        29.92S WCI  14
CODY           LGT SNOW  21  17  84 NW7       29.90S FOG     WCI  12
YELLOWSTONE LA   N/A     13   5  70 CALM      29.74R
IDAHO FALLS    LGT SNOW  24  23  96 S16       29.79S FOG     WCI  11
SALMON         CLOUDY    30  23  74 N3        29.83S
BOISE          CLOUDY    32  23  69 NW16      29.96R WCI  21
SPOKANE        PTCLDY    29  21  72 S7        30.04F WCI  22
$$

REGIONAL REPORTS...ALBERTA

CITY           SKY/WX    TMP DP  RH WIND       PRES   REMARKS
CALGARY        PTCLDY    19  14  79 S10       29.94S WCI   8
LETHBRIDGE     CLOUDY    25  21  86 S10       29.98F WCI  15
MEDICINE HAT   FLURRIES  23  18  80 E10       30.06F WCI  12
WATERTON GATE    N/A      9   7  92 S5          N/A
CARDSTON         N/A     19  14  79 S8          N/A  WCI   9
MILK RIVER       N/A     25  23  93 S15         N/A  WCI  12
ONEFOUR          N/A     21  19  93 E8          N/A  WCI  12
$$

REGIONAL REPORTS...SASKATCHEWAN

CITY           SKY/WX    TMP DP  RH WIND       PRES   REMARKS
SWIFT CURRENT  CLOUDY    23  18  80 S8        30.07F WCI  14
REGINA         CLOUDY    25  19  80 W5        30.12S
SASKATOON      MOCLDY    21  16  79 N5        30.12S
CYPRESS HILLS    N/A     16  12  86 S9          N/A  WCI   4
VAL MARIE        N/A     25  19  80 E8          N/A  WCI  16
ROCKGLEN         N/A     21  14  73 N1          N/A
$$




USA.gov is the U.S. government's official web portal to all federal, state and local government web resources and services.